Back to catalog

NOAA 17 DEB

AlivePO
NORAD 48178·DEBRIS·🇺🇸 United States

Launched Jun 24, 2002 from Vandenberg Space Force Base

Loading…

Next Passes (next 24 hours)

TLE

FreshSource: Space-Track

Epoch: Sep 14, 2026, 00:05 UTC

1 48178U 02032T   26257.00365334  .00004478  00000-0  10562-2 0  9990
2 48178  98.8599 278.5861 0007745 352.7164   7.3917 14.54762772286903

Track NOAA 17 DEB in real time with AllMySat

Download on the App Store